User: anonymous   Login
Location: Unspecified
(0.0000°N, 0.0000°E)
Time: 20:02:09
(UTC+00:00)
Language:

PIESAT-2 12 - Orbit

View from above orbital plane
View from above orbital plane
View from above satellite
View from above satellite

Ground track
Ground track

The orbit is defined by the following mean orbital elements,

1 62336U          26145.60063964 +.00000000 +00000-0 +46719-3 0 00005
2 62336  97.5244  93.3429 0002336  85.8690 274.2809 15.14094257    03
Epoch (UTC): 25 May 2026 14:24:55
Eccentricity: 0.0002336
inclination: 97.5244°
perigee height: 522 km
apogee height: 525 km
right ascension of ascending node: 93.3429°
argument of perigee: 85.8690°
revolutions per day: 15.14094257
mean anomaly at epoch: 274.2809°

The dashed part of the orbit path shows where the satellite is in the earth's shadow,  

DLR